SCOUT B DEB, 2800

Orbit data source: Space-Track

SCOUT B DEB, 2800 is space debris in LEO originally from a launch on Thu, 04 Aug 1966 UTC launched from the Air Force Western Test Range (AFWTR). Debris objects in space refer to the collection of defunct objects orbiting the Earth. Examples of debris include non-operational satellites, rocket bodies, and fragments generated from explosions, collisions, or faulty payload assembly.

Loading next visibility...
Identifier
2800, 1966-070D
Orbit
LEO
Country
Flag of USUS
Related business
Manufacturer
Unknown
Mission
Spacecraft
Bus & Motor
Unknown
Mass
Unknown
Launch date (UTC)
1966-08-04 (60 years ago)
Launch vehicle
Unknown
Launch site
Air Force Western Test Range (AFWTR)
Object type
Payload
Rocket body
Debris
Shape & HBR
Unknown shape, 0.1 m
Radar Cross Section
Medium (>0.1 m² and <1 m²)

Expand to show TLE details & history
Last TLE update: 18 hours ago

TLE from 18 hours ago
0 SCOUT B DEB
1  2800U 66070D   26256.22584034  .00002725  00000-0  34992-3 0  9994
2  2800  81.4071 179.5151 1380169 215.6133 134.4788 12.44418482595722
Epoch: 2026-09-13T05:25Z
TLE epoch observation values (Epoch: 2026-09-13T05:25:12.605Z)
Latitude
0.00005°
Longitude
105.98905°
Altitude
2,317.537 km
Speed
6.406 km/s
True Right ascension
11h 58m 03s
True Declination
0° 00' 00"
Sunlit
Object was in daylight at epoch
Visualization orbit readout
Latitude
Unknown
Longitude
Unknown
Altitude
Unknown
Speed
Unknown
Apparent Right ascension
Unknown
Apparent Declination
Unknown
Sunlit
N/A
Visualization observer readout
Local Sidereal Time
15:31:44
Azimuth
Unknown
Elevation
Unknown
Doppler factor
Unknown
Orbital elements
Apogee altitude
2,570.525 km
Perigee altitude
399.966 km
Semi-major axis
7,863.382 km
Eccentricity
0.13802
Inclination
81.4071°
RAAN
179.5151°
Arg. of periapsis
215.6133°
True anomaly
144.49181°
Mean anomaly
134.4788°
Eccentric anomaly
139.60361°
Mean motion
3.11264 °/min
Orbital period
115.66 mins
BSTAR
0.00034992
Loading maneuver chart data...
Computing Atmospheric mass density...
Loading historical data...
Loading historical data...
Loading historical data...
Loading historical data...
Loading historical data...
Loading historical data...
Loading historical data...
Other satellites on launch #70 in the year 1966 (1966-08-04 UTC)

Documentation

Showing up to 5 results
|